sat.trackr.live / text

‹ back to catalog

STARLINK-36520

NORAD 67466 · 2026-008X

PAYLOAD ACTIVE UNKNOWN

§ Identity

Operator
Country
US
Launch date
2026-01-14
Launch site
AFETR
Launch vehicle
Mass (kg)
RCS (m²)

Purposes: comms

External: N2YO · Heavens-Above · Gunter

§ Orbital elements

Epoch: 2026-09-19T22:08:50.871264Z

Period
94.27 min
Inclination
43.0052°
Eccentricity
0.0001917
Mean motion
15.27602022 rev/d
Perigee alt
481.7 km
Apogee alt
484.3 km
Semi-major
6,861.1 km
B*
8.2651e-4
RAAN
188.6468°
Arg perigee
272.1235°
Mean anomaly
87.9397°
Rev number
3,927

§ Raw data

STARLINK-365201 67466U 26008X   26262.92281101  .00022567  00000+0  82651-3 0  99932 67466  43.0052 188.6468 0001917 272.1235  87.9397 15.27602022 39277

JSON: /api/v1/satellites/67466 · /tle

For live sub-satellite position, see the globe view (requires WebGL).

§ Visibility from observer

Set your observer location to see the next 7 days of passes ≥ 10°. The values pass through the URL so the page stays shareable.

No JS? Fill the form by hand. The geolocation button needs JavaScript.